Weather History for Redding, CA

Change the Weather History Date:

Friday, November 8, 2013

  Actual Average Record
Temperature  
Mean Temperature 57 °F -  
Max Temperature 73 °F 66 °F 79 °F (1990)
Min Temperature 41 °F 43 °F 30 °F (2011)
Degree Days  
Heating Degree Days 8    
Cooling Degree Days 0    
Growing Degree Days 7 (Base 50)    
Moisture  
Dew Point 36 °F    
Average Humidity 52    
Maximum Humidity 76    
Minimum Humidity 27    
Precipitation  
Precipitation 0.00 in 0.13 in 1.33 in (2003)
Month to date precipitation 0.00 0.99  
Year to date precipitation 10.70 24.86  
Since 1 July precipitation 1.40 4.00  
Sea Level Pressure  
Sea Level Pressure 30.02 in    
Wind  
Wind Speed 1 mph (NNW)    
Max Wind Speed 9 mph    
Max Gust Speed 12 mph    
Visibility 10 miles    
Events      
T = Trace of Precipitation, MM = Missing Value Source: NWS Daily Summary

Daily Weather History Graph

Daily Weather History Graph

Search for Another Location

Airport:

Trip Planner

Search our weather history database for the weather conditions in past years. The results will help you decide how hot, cold, wet, or windy it might be!

Date:

Astronomy

Nov. 08, 2013 Rise Set
Actual Time 6:47 AM PST 4:57 PM PST
Civil Twilight 6:18 AM PST 5:26 PM PST
Nautical Twilight 5:46 AM PST 5:59 PM PST
Astronomical Twilight 5:14 AM PST 6:31 PM PST
Moon 11:47 AM PST (11/8) 10:25 PM PST (11/8)
Length of Visible Light 11h 07m
Length of Day
10h 09m
Waxing Crescent, 34% of the Moon is Illuminated
Nov 8
Waxing Crescent
Nov 9
First Quarter
Nov 17
Full
Nov 25
Last Quarter
Dec 2
New

Hourly Weather History & Observations

Time (PST) Temp. Windchill Dew Point Humidity Pressure Visibility Wind Dir Wind Speed Gust Speed Precip Events Conditions
12:53 AM 46.9 °F - 34.0 °F 61% 30.07 in 10.0 mi Calm Calm - N/A   Clear
1:53 AM 46.0 °F - 35.1 °F 66% 30.08 in 10.0 mi Calm Calm - N/A   Clear
2:53 AM 45.0 °F - 34.0 °F 65% 30.08 in 10.0 mi Calm Calm - N/A   Clear
3:53 AM 45.0 °F - 35.1 °F 68% 30.07 in 10.0 mi Calm Calm - N/A   Clear
4:53 AM 43.0 °F - 36.0 °F 76% 30.08 in 10.0 mi Calm Calm - N/A   Clear
5:53 AM 43.0 °F 41.3 °F 36.0 °F 76% 30.08 in 10.0 mi North 3.5 mph - N/A   Clear
6:53 AM 42.1 °F 40.2 °F 35.1 °F 76% 30.08 in 10.0 mi NW 3.5 mph - N/A   Clear
7:53 AM 50.0 °F - 37.9 °F 63% 30.08 in 10.0 mi Calm Calm - N/A   Clear
8:53 AM 57.0 °F - 39.9 °F 53% 30.08 in 10.0 mi North 3.5 mph - N/A   Clear
9:53 AM 64.9 °F - 41.0 °F 42% 30.06 in 10.0 mi NNE 6.9 mph - N/A   Clear
10:53 AM 66.9 °F - 42.1 °F 40% 30.04 in 10.0 mi Variable 3.5 mph - N/A   Clear
11:53 AM 69.1 °F - 39.9 °F 35% 30.01 in 10.0 mi Calm Calm - N/A   Clear
12:53 PM 71.1 °F - 37.9 °F 30% 29.99 in 10.0 mi Calm Calm - N/A   Clear
1:53 PM 72.0 °F - 37.0 °F 28% 29.96 in 10.0 mi Calm Calm - N/A   Clear
2:53 PM 71.1 °F - 36.0 °F 28% 29.95 in 10.0 mi Calm Calm - N/A   Clear
3:53 PM 71.1 °F - 30.9 °F 23% 29.94 in 10.0 mi SSW 3.5 mph - N/A   Clear
4:53 PM 66.0 °F - 36.0 °F 33% 29.94 in 10.0 mi Calm Calm - N/A   Clear
5:53 PM 59.0 °F - 37.0 °F 44% 29.95 in 10.0 mi NW 3.5 mph - N/A   Clear
6:53 PM 55.0 °F - 36.0 °F 49% 29.96 in 10.0 mi North 4.6 mph - N/A   Clear
7:53 PM 52.0 °F - 35.1 °F 53% 29.98 in 10.0 mi Calm Calm - N/A   Clear
8:53 PM 50.0 °F - 35.1 °F 57% 29.99 in 10.0 mi Calm Calm - N/A   Clear
9:53 PM 48.9 °F - 36.0 °F 61% 30.00 in 10.0 mi Calm Calm - N/A   Clear
10:53 PM 48.9 °F - 37.9 °F 66% 30.00 in 10.0 mi NNW 3.5 mph - N/A   Clear
11:53 PM 46.9 °F - 37.0 °F 68% 30.00 in 10.0 mi Calm Calm - N/A   Clear